{"data":{"norad_id":58361,"intl_designator":"2023-177L","name":"STARLINK-30885","alt_names":[],"object_type":"PAYLOAD","status":"ACTIVE","operator":null,"country":"US","launch_date":"2023-11-18","launch_site_code":"AFETR","launch_vehicle":null,"mission":null,"orbit_class":"UNKNOWN","rcs_meters":null,"size_class":null,"mass_kg":null,"dimensions":null,"purposes":["comms"],"wikipedia_slug":null,"has_3d_model":false,"image_url":null,"decayed_at":null,"tle_current":{"epoch":"2026-05-24T18:24:01.958976Z","epoch_age_seconds":91371,"freshness":"FRESH","line1":"1 58361U 23177L   26144.76668934 -.00000417  00000+0 -56435-5 0  9990","line2":"2 58361  43.0033 280.8623 0001623 264.5640  95.5027 15.27571873139878","mean_motion":15.27571873,"eccentricity":0.0001623,"inclination_deg":43.0033,"raan_deg":280.8623,"arg_perigee_deg":264.564,"mean_anomaly_deg":95.5027,"bstar":-5.6435e-6,"rev_number":13987,"period_min":94.267250232356,"perigee_km":481.95985685622,"apogee_km":484.18700576222,"semimajor_km":6861.2104313092,"source":"CELESTRAK","updated_at":"2026-05-25T13:38:18.607773Z"}}}